AVA8599 SKBO-SKPS

Flight info

Callsign AVA8599
Flight time 0h 47m
Altitude 34000
Route VAPOM4R OREGA DCT MER
Aircraft A320/M-SDE3FGHIRWY/LB1

Departure

Time 2026-04-25 13:43
Airport El Dorado International Airport (SKBO)

Arrival

Time 2026-04-25 14:30
Airport Antonio Nariño Airport (SKPS)
Time Latitude Longitude Altitude Speed Heading
2026-04-25 12:02 4.69831 -74.14392 8366 ft 0 kts 227°
2026-04-25 13:03 4.69839 -74.14383 8366 ft 4 kts 228°
2026-04-25 13:03 4.69856 -74.14363 8366 ft 4 kts 233°
2026-04-25 13:04 4.69871 -74.14340 8366 ft 4 kts 251°
2026-04-25 13:04 4.69873 -74.14318 8366 ft 3 kts 303°
2026-04-25 13:04 4.69871 -74.14315 8366 ft 0 kts 307°
2026-04-25 13:15 4.69872 -74.14316 8366 ft 1 kts 307°
2026-04-25 13:16 4.69890 -74.14339 8366 ft 7 kts 307°
2026-04-25 13:16 4.69926 -74.14386 8366 ft 9 kts 307°
2026-04-25 13:16 4.69964 -74.14437 8366 ft 10 kts 307°
2026-04-25 13:16 4.70007 -74.14494 8366 ft 11 kts 307°
2026-04-25 13:17 4.70053 -74.14555 8366 ft 11 kts 307°
2026-04-25 13:17 4.70100 -74.14616 8366 ft 11 kts 314°
2026-04-25 13:17 4.70158 -74.14666 8366 ft 11 kts 302°
2026-04-25 13:17 4.70129 -74.14727 8366 ft 11 kts 219°
2026-04-25 13:18 4.70066 -74.14775 8366 ft 13 kts 217°
2026-04-25 13:18 4.69990 -74.14832 8366 ft 14 kts 217°
2026-04-25 13:18 4.69911 -74.14891 8366 ft 14 kts 217°
2026-04-25 13:18 4.69852 -74.14950 8366 ft 10 kts 255°
2026-04-25 13:19 4.69882 -74.15013 8366 ft 11 kts 306°
2026-04-25 13:19 4.69934 -74.15082 8366 ft 13 kts 308°
2026-04-25 13:19 4.69995 -74.15161 8366 ft 15 kts 306°
2026-04-25 13:19 4.70038 -74.15219 8366 ft 16 kts 306°
2026-04-25 13:20 4.70132 -74.15344 8365 ft 17 kts 307°
2026-04-25 13:20 4.70204 -74.15439 8365 ft 17 kts 307°
2026-04-25 13:20 4.70275 -74.15532 8365 ft 17 kts 307°
2026-04-25 13:20 4.70344 -74.15624 8365 ft 16 kts 307°
2026-04-25 13:21 4.70413 -74.15714 8365 ft 16 kts 308°
2026-04-25 13:21 4.70479 -74.15800 8365 ft 15 kts 307°
2026-04-25 13:21 4.70541 -74.15883 8366 ft 15 kts 307°
2026-04-25 13:21 4.70601 -74.15962 8366 ft 14 kts 307°
2026-04-25 13:22 4.70657 -74.16036 8366 ft 13 kts 307°
2026-04-25 13:22 4.70709 -74.16105 8366 ft 12 kts 307°
2026-04-25 13:22 4.70757 -74.16168 8366 ft 11 kts 307°
2026-04-25 13:23 4.70851 -74.16293 8366 ft 11 kts 307°
2026-04-25 13:23 4.70895 -74.16349 8366 ft 10 kts 307°
2026-04-25 13:23 4.70932 -74.16399 8366 ft 8 kts 307°
2026-04-25 13:23 4.70963 -74.16440 8366 ft 6 kts 307°
2026-04-25 13:24 4.70983 -74.16466 8366 ft 0 kts 307°
2026-04-25 13:26 4.70991 -74.16477 8365 ft 4 kts 307°
2026-04-25 13:26 4.71016 -74.16509 8365 ft 6 kts 307°
2026-04-25 13:26 4.71034 -74.16533 8366 ft 2 kts 307°
2026-04-25 13:26 4.71036 -74.16537 8366 ft 0 kts 307°
2026-04-25 13:28 4.71037 -74.16537 8366 ft 0 kts 307°
2026-04-25 13:28 4.71040 -74.16542 8366 ft 1 kts 307°
2026-04-25 13:28 4.71051 -74.16556 8365 ft 4 kts 307°
2026-04-25 13:29 4.71070 -74.16581 8366 ft 6 kts 307°
2026-04-25 13:29 4.71098 -74.16618 8366 ft 8 kts 307°
2026-04-25 13:29 4.71115 -74.16641 8366 ft 0 kts 307°
2026-04-25 13:30 4.71134 -74.16665 8366 ft 2 kts 307°
2026-04-25 13:30 4.71136 -74.16669 8366 ft 0 kts 307°
2026-04-25 13:31 4.71138 -74.16671 8366 ft 1 kts 307°
2026-04-25 13:32 4.71147 -74.16683 8366 ft 3 kts 307°
2026-04-25 13:32 4.71165 -74.16707 8366 ft 5 kts 307°
2026-04-25 13:32 4.71178 -74.16724 8366 ft 0 kts 307°
2026-04-25 13:38 4.71180 -74.16728 8366 ft 1 kts 307°
2026-04-25 13:38 4.71188 -74.16737 8366 ft 2 kts 307°
2026-04-25 13:38 4.71199 -74.16755 8366 ft 4 kts 298°
2026-04-25 13:38 4.71201 -74.16783 8365 ft 5 kts 258°
2026-04-25 13:39 4.71177 -74.16812 8365 ft 6 kts 220°
2026-04-25 13:39 4.71159 -74.16826 8365 ft 0 kts 217°
2026-04-25 13:39 4.71158 -74.16826 8365 ft 1 kts 217°
2026-04-25 13:39 4.71142 -74.16839 8364 ft 5 kts 217°
2026-04-25 13:40 4.71105 -74.16866 8363 ft 7 kts 214°
2026-04-25 13:40 4.71063 -74.16885 8363 ft 7 kts 195°
2026-04-25 13:40 4.71019 -74.16873 8363 ft 6 kts 135°
2026-04-25 13:40 4.71015 -74.16868 8363 ft 0 kts 128°
2026-04-25 13:42 4.70958 -74.16795 8363 ft 40 kts 128°
2026-04-25 13:42 4.70648 -74.16383 8365 ft 105 kts 127°
2026-04-25 13:43 4.70090 -74.15646 8364 ft 158 kts 127°
2026-04-25 13:43 4.69601 -74.14998 8379 ft 187 kts 126°
2026-04-25 13:43 4.68528 -74.13632 9269 ft 189 kts 137°
2026-04-25 13:43 4.67773 -74.13206 9641 ft 190 kts 169°
2026-04-25 13:44 4.66499 -74.13423 10147 ft 190 kts 216°
2026-04-25 13:44 4.65649 -74.14415 10644 ft 189 kts 238°
2026-04-25 13:44 4.64946 -74.15530 11134 ft 189 kts 238°
2026-04-25 13:44 4.64237 -74.16640 11589 ft 191 kts 238°
2026-04-25 13:45 4.63481 -74.17813 11754 ft 210 kts 238°
2026-04-25 13:45 4.62649 -74.19096 11901 ft 229 kts 238°
2026-04-25 13:45 4.61773 -74.20504 12093 ft 244 kts 246°
2026-04-25 13:45 4.61289 -74.22163 12345 ft 258 kts 260°
2026-04-25 13:46 4.60930 -74.24006 12540 ft 282 kts 260°
2026-04-25 13:46 4.60545 -74.26006 12864 ft 300 kts 260°
2026-04-25 13:46 4.59941 -74.28030 13472 ft 308 kts 244°
2026-04-25 13:46 4.58934 -74.29943 14137 ft 312 kts 243°
2026-04-25 13:47 4.57932 -74.31880 14803 ft 315 kts 243°
2026-04-25 13:47 4.56932 -74.33851 15470 ft 320 kts 244°
2026-04-25 13:47 4.55923 -74.35846 16134 ft 322 kts 243°
2026-04-25 13:47 4.54899 -74.37861 16752 ft 326 kts 243°
2026-04-25 13:48 4.53864 -74.39895 17355 ft 329 kts 243°
2026-04-25 13:48 4.52819 -74.41948 17934 ft 333 kts 243°
2026-04-25 13:48 4.51742 -74.44066 18127 ft 349 kts 243°
2026-04-25 13:48 4.50617 -74.46260 18410 ft 360 kts 243°
2026-04-25 13:49 4.49463 -74.48508 18663 ft 371 kts 243°
2026-04-25 13:49 4.48279 -74.50817 19216 ft 373 kts 243°
2026-04-25 13:49 4.47090 -74.53136 19701 ft 376 kts 243°
2026-04-25 13:49 4.45890 -74.55478 20181 ft 379 kts 243°
2026-04-25 13:50 4.44684 -74.57834 20646 ft 383 kts 243°
2026-04-25 13:50 4.43460 -74.60220 21102 ft 386 kts 243°
2026-04-25 13:50 4.42225 -74.62626 21544 ft 389 kts 243°
2026-04-25 13:50 4.40981 -74.65051 21987 ft 393 kts 243°
2026-04-25 13:51 4.39723 -74.67502 22268 ft 399 kts 243°
2026-04-25 13:51 4.38446 -74.69996 22520 ft 406 kts 243°
2026-04-25 13:51 4.37140 -74.72538 22778 ft 413 kts 243°
2026-04-25 13:51 4.35812 -74.75116 23029 ft 419 kts 242°
2026-04-25 13:52 4.34464 -74.77732 23280 ft 425 kts 243°
2026-04-25 13:52 4.33097 -74.80382 23529 ft 431 kts 242°
2026-04-25 13:52 4.31710 -74.83071 23784 ft 436 kts 242°
2026-04-25 13:52 4.30310 -74.85781 23966 ft 440 kts 243°
2026-04-25 13:53 4.28898 -74.88523 24017 ft 448 kts 243°
2026-04-25 13:53 4.27458 -74.91325 24016 ft 457 kts 243°
2026-04-25 13:53 4.25992 -74.94174 24229 ft 460 kts 243°
2026-04-25 13:53 4.24540 -74.96990 24922 ft 452 kts 242°
2026-04-25 13:54 4.23094 -74.99790 25332 ft 452 kts 242°
2026-04-25 13:54 4.21643 -75.02593 25639 ft 454 kts 242°
2026-04-25 13:54 4.20050 -75.05325 25928 ft 455 kts 233°
2026-04-25 13:54 4.18158 -75.07884 26222 ft 457 kts 232°
2026-04-25 13:55 4.16248 -75.10444 26519 ft 459 kts 232°
2026-04-25 13:55 4.14323 -75.13010 26830 ft 462 kts 232°
2026-04-25 13:55 4.12386 -75.15587 27130 ft 464 kts 232°
2026-04-25 13:55 4.10470 -75.18145 27409 ft 466 kts 232°
2026-04-25 13:56 4.08496 -75.20780 27682 ft 468 kts 232°
2026-04-25 13:56 4.06537 -75.23397 27957 ft 471 kts 232°
2026-04-25 13:56 4.04567 -75.26027 28235 ft 473 kts 232°
2026-04-25 13:56 4.02614 -75.28633 28498 ft 474 kts 232°
2026-04-25 13:57 4.00630 -75.31281 28751 ft 477 kts 231°
2026-04-25 13:57 3.99286 -75.33077 28916 ft 478 kts 231°
2026-04-25 13:57 3.96633 -75.36623 29200 ft 481 kts 231°
2026-04-25 13:57 3.94627 -75.39304 29418 ft 483 kts 231°
2026-04-25 13:58 3.92604 -75.42007 29652 ft 486 kts 231°
2026-04-25 13:58 3.90576 -75.44714 29933 ft 486 kts 231°
2026-04-25 13:58 3.88547 -75.47419 30251 ft 486 kts 231°
2026-04-25 13:58 3.86341 -75.49958 30572 ft 482 kts 221°
2026-04-25 13:59 3.83784 -75.52130 30900 ft 479 kts 216°
2026-04-25 13:59 3.81179 -75.54205 31240 ft 478 kts 216°
2026-04-25 13:59 3.78576 -75.56275 31582 ft 478 kts 216°
2026-04-25 13:59 3.76004 -75.58323 31906 ft 477 kts 216°
2026-04-25 14:00 3.73406 -75.60390 32250 ft 476 kts 216°
2026-04-25 14:00 3.70817 -75.62450 32584 ft 475 kts 216°
2026-04-25 14:00 3.68232 -75.64512 32909 ft 474 kts 215°
2026-04-25 14:00 3.65657 -75.66569 33217 ft 473 kts 216°
2026-04-25 14:01 3.63086 -75.68623 33530 ft 473 kts 215°
2026-04-25 14:01 3.60523 -75.70672 33836 ft 472 kts 215°
2026-04-25 14:01 3.57952 -75.72725 34069 ft 473 kts 215°
2026-04-25 14:02 3.52811 -75.76822 34130 ft 472 kts 215°
2026-04-25 14:02 3.47669 -75.80911 34139 ft 472 kts 215°
2026-04-25 14:03 3.42531 -75.85003 34136 ft 472 kts 215°
2026-04-25 14:03 3.37428 -75.89073 34137 ft 472 kts 215°
2026-04-25 14:04 3.32284 -75.93174 34131 ft 472 kts 215°
2026-04-25 14:04 3.27150 -75.97264 34130 ft 472 kts 215°
2026-04-25 14:05 3.22007 -76.01356 34134 ft 473 kts 215°
2026-04-25 14:05 3.16850 -76.05458 34133 ft 473 kts 215°
2026-04-25 14:06 3.11701 -76.09553 34131 ft 473 kts 215°
2026-04-25 14:06 3.06550 -76.13647 34131 ft 473 kts 215°
2026-04-25 14:07 3.01406 -76.17753 34131 ft 473 kts 216°
2026-04-25 14:07 2.96261 -76.21860 34135 ft 473 kts 215°
2026-04-25 14:08 2.91094 -76.25963 34145 ft 474 kts 215°
2026-04-25 14:08 2.85930 -76.30064 34151 ft 474 kts 215°
2026-04-25 14:09 2.80767 -76.34171 34157 ft 474 kts 215°
2026-04-25 14:09 2.75645 -76.38254 34168 ft 474 kts 215°
2026-04-25 14:10 2.70479 -76.42371 34180 ft 474 kts 215°
2026-04-25 14:10 2.65312 -76.46480 33958 ft 476 kts 215°
2026-04-25 14:10 2.62719 -76.48539 33699 ft 476 kts 215°
2026-04-25 14:11 2.60121 -76.50596 33449 ft 477 kts 215°
2026-04-25 14:11 2.57518 -76.52661 33020 ft 477 kts 216°
2026-04-25 14:11 2.54895 -76.54743 31861 ft 486 kts 216°
2026-04-25 14:11 2.52232 -76.56856 30793 ft 490 kts 216°
2026-04-25 14:12 2.49546 -76.58989 29639 ft 496 kts 217°
2026-04-25 14:12 2.46843 -76.61138 28731 ft 496 kts 217°
2026-04-25 14:12 2.44156 -76.63275 28065 ft 490 kts 217°
2026-04-25 14:12 2.41500 -76.65391 27314 ft 486 kts 218°
2026-04-25 14:13 2.38870 -76.67489 26606 ft 481 kts 218°
2026-04-25 14:13 2.36264 -76.69563 25879 ft 476 kts 218°
2026-04-25 14:13 2.33687 -76.71610 25166 ft 471 kts 218°
2026-04-25 14:13 2.31131 -76.73642 24462 ft 466 kts 218°
2026-04-25 14:14 2.28606 -76.75647 23781 ft 461 kts 218°
2026-04-25 14:14 2.26101 -76.77633 23109 ft 457 kts 218°
2026-04-25 14:14 2.23624 -76.79599 22475 ft 451 kts 218°
2026-04-25 14:14 2.21181 -76.81542 21886 ft 446 kts 219°
2026-04-25 14:15 2.18768 -76.83462 21299 ft 441 kts 219°
2026-04-25 14:15 2.17991 -76.84080 21116 ft 439 kts 219°
2026-04-25 14:15 2.14034 -76.87226 20229 ft 429 kts 219°
2026-04-25 14:15 2.11716 -76.89065 19709 ft 422 kts 219°
2026-04-25 14:16 2.09455 -76.90859 19206 ft 417 kts 219°
2026-04-25 14:16 2.07201 -76.92649 18681 ft 411 kts 219°
2026-04-25 14:16 2.04974 -76.94418 18171 ft 407 kts 219°
2026-04-25 14:16 2.02774 -76.96167 17648 ft 402 kts 219°
2026-04-25 14:17 2.00594 -76.97899 17123 ft 398 kts 219°
2026-04-25 14:17 1.98437 -76.99611 16590 ft 394 kts 219°
2026-04-25 14:17 1.96294 -77.01310 16060 ft 392 kts 219°
2026-04-25 14:17 1.94166 -77.03001 15513 ft 389 kts 219°
2026-04-25 14:18 1.92065 -77.04673 15174 ft 381 kts 219°
2026-04-25 14:18 1.90031 -77.06290 15065 ft 367 kts 219°
2026-04-25 14:18 1.88061 -77.07853 14935 ft 354 kts 219°
2026-04-25 14:18 1.86164 -77.09357 14809 ft 342 kts 219°
2026-04-25 14:19 1.84328 -77.10814 14685 ft 331 kts 219°
2026-04-25 14:19 1.82580 -77.12202 14574 ft 310 kts 219°
2026-04-25 14:19 1.80937 -77.13505 14320 ft 297 kts 219°
2026-04-25 14:19 1.79336 -77.14771 13950 ft 289 kts 217°
2026-04-25 14:20 1.77645 -77.15806 13699 ft 288 kts 208°
2026-04-25 14:20 1.77050 -77.16124 13620 ft 289 kts 208°
2026-04-25 14:20 1.74113 -77.17695 13202 ft 286 kts 208°
2026-04-25 14:20 1.72357 -77.18633 12955 ft 285 kts 208°
2026-04-25 14:21 1.70611 -77.19566 12694 ft 284 kts 208°
2026-04-25 14:21 1.68873 -77.20496 12443 ft 283 kts 208°
2026-04-25 14:21 1.67132 -77.21422 12206 ft 282 kts 208°
2026-04-25 14:21 1.65407 -77.22343 11955 ft 281 kts 208°
2026-04-25 14:22 1.63683 -77.23266 11694 ft 280 kts 208°
2026-04-25 14:22 1.61972 -77.24182 11478 ft 278 kts 208°
2026-04-25 14:22 1.60268 -77.25098 11247 ft 278 kts 209°
2026-04-25 14:22 1.58568 -77.26013 10951 ft 277 kts 208°
2026-04-25 14:23 1.56879 -77.26920 10693 ft 272 kts 208°
2026-04-25 14:23 1.55257 -77.27790 10484 ft 258 kts 208°
2026-04-25 14:23 1.53707 -77.28619 10281 ft 248 kts 208°
2026-04-25 14:23 1.52203 -77.29418 10020 ft 241 kts 207°
2026-04-25 14:24 1.50732 -77.30166 9794 ft 233 kts 207°
2026-04-25 14:24 1.49305 -77.30877 9608 ft 223 kts 206°
2026-04-25 14:24 1.47984 -77.31532 9423 ft 208 kts 206°
2026-04-25 14:24 1.46708 -77.32165 9210 ft 201 kts 206°
2026-04-25 14:25 1.45471 -77.32781 9015 ft 196 kts 206°
2026-04-25 14:25 1.44280 -77.33373 8890 ft 185 kts 206°
2026-04-25 14:25 1.43162 -77.33931 8808 ft 176 kts 207°
2026-04-25 14:25 1.42793 -77.34115 8814 ft 174 kts 207°
2026-04-25 14:26 1.41016 -77.35004 8813 ft 171 kts 207°
2026-04-25 14:26 1.39954 -77.35536 8806 ft 171 kts 207°
2026-04-25 14:26 1.38908 -77.36060 8832 ft 166 kts 206°
2026-04-25 14:26 1.37835 -77.36475 8687 ft 167 kts 191°
2026-04-25 14:27 1.36696 -77.36502 8409 ft 164 kts 171°
2026-04-25 14:27 1.35618 -77.36150 8165 ft 164 kts 152°
2026-04-25 14:27 1.34720 -77.35460 7925 ft 163 kts 131°
2026-04-25 14:27 1.34112 -77.34513 7700 ft 162 kts 111°
2026-04-25 14:28 1.33850 -77.33424 7464 ft 161 kts 92°
2026-04-25 14:28 1.33958 -77.32318 7239 ft 160 kts 73°
2026-04-25 14:28 1.34422 -77.31314 7018 ft 158 kts 53°
2026-04-25 14:28 1.34893 -77.30762 6869 ft 157 kts 41°
2026-04-25 14:29 1.35798 -77.30158 6648 ft 156 kts 23°
2026-04-25 14:29 1.37194 -77.29748 6348 ft 156 kts 13°
2026-04-25 14:29 1.37885 -77.29564 6180 ft 155 kts 13°
2026-04-25 14:29 1.38927 -77.29288 5941 ft 149 kts 13°
2026-04-25 14:30 1.39537 -77.29128 5912 ft 115 kts 15°
2026-04-25 14:30 1.40442 -77.28887 5860 ft 29 kts 15°
2026-04-25 14:30 1.40570 -77.28854 5853 ft 11 kts
2026-04-25 14:31 1.40615 -77.28847 5851 ft 4 kts 78°
2026-04-25 14:31 1.40594 -77.28846 5852 ft 4 kts 194°
2026-04-25 14:31 1.40558 -77.28856 5862 ft 5 kts 196°
2026-04-25 14:31 1.40508 -77.28870 5862 ft 11 kts 195°
2026-04-25 14:32 1.40409 -77.28896 5868 ft 18 kts 196°
2026-04-25 14:32 1.40267 -77.28935 5878 ft 22 kts 194°
2026-04-25 14:32 1.40111 -77.28976 5877 ft 26 kts 195°
2026-04-25 14:32 1.39927 -77.29024 5889 ft 27 kts 194°
2026-04-25 14:33 1.39764 -77.29067 5899 ft 22 kts 194°
2026-04-25 14:33 1.39632 -77.29102 5906 ft 11 kts 194°
2026-04-25 14:33 1.39597 -77.29076 5907 ft 5 kts 104°
2026-04-25 14:33 1.39589 -77.29047 5907 ft 3 kts 110°
2026-04-25 14:34 1.39572 -77.29037 5908 ft 3 kts 170°
2026-04-25 14:34 1.39552 -77.29031 5908 ft 2 kts 141°
2026-04-25 14:34 1.39549 -77.29017 5908 ft 2 kts 103°
2026-04-25 14:34 1.39543 -77.28997 5908 ft 2 kts 105°
2026-04-25 14:35 1.39542 -77.28992 5908 ft 0 kts 105°